Flag for Switzerland Weather past 2 weeks in Liestal, Basel-Land, Switzerland

Now
73 °F

Passing clouds.


Feels Like: 76 °F
Forecast: 57 / 74 °F
Wind: 5 mph from Southeast

Location: Bale-Mulhouse

Current Time: Jul 25, 2014 at 11:22:54 AM

Latest Report: Jul 25, 2014 at 11:00 AM


Visibility: N/A

Pressure: 29.92 "Hg

Humidity: 61%

Dew point: 59 °F

Location of LiestalLocation

Historic Weather in Liestal — Graph

°F

Liestal temperature yesterday

Maximum temperature yesterday: 81 °F (at 3:00 PM)
Minimum temperature yesterday: 59 °F (at 5:00 AM)
Average temperature yesterday: 68 °F

Past Weeks' High & Low Weather Summary

 TemperatureHumidityPressure
High93 °F (Jul 18, 4:35 PM)100% (Jul 11, 4:30 AM)30.18 "Hg (Jul 11, 4:30 AM)
Low54 °F (Jul 15, 5:00 AM)20% (Jul 18, 5:00 PM)29.80 "Hg (Jul 10, 10:00 AM)
Average68 °F78%29.98 "Hg
* Reported Jul 10 10:00 AM — Jul 25 10:00 AM, Liestal, Weather by CustomWeather, © 2014

Note: Actual official high and low records may vary slightly from our data, if they occured in-between our weather recording intervals... More about our weather records

Advertising

Liestal weather history for previous 24 hours

 ConditionsComfort  
Time TempWeatherWind HumidityBarometerVisibility
10:00 AM
Jul 25
70 °FPassing clouds.3 mph64%29.95 "HgN/A
9:30 AM68 °FPassing clouds.5 mph69%29.95 "HgN/A
9:00 AM66 °FPassing clouds.3 mph78%29.95 "HgN/A
8:30 AM64 °FPassing clouds.5 mph83%29.92 "HgN/A
8:00 AM63 °FPassing clouds.7 mph83%29.92 "HgN/A
7:30 AM61 °FPassing clouds.5 mph88%29.95 "HgN/A
7:00 AM57 °FPassing clouds.3 mph100%29.95 "HgN/A
6:30 AM57 °FPassing clouds.5 mph100%29.95 "HgN/A
6:00 AM55 °FFog.2 mph94%29.92 "Hg5 mi
5:30 AM55 °FFog.No wind100%29.92 "Hg4 mi
5:00 AM57 °FClear.No wind94%29.92 "Hg6 mi
4:30 AM57 °FClear.No wind94%29.92 "Hg5 mi
4:00 AM57 °FClear.2 mph100%29.92 "HgN/A
3:30 AM57 °FClear.3 mph100%29.92 "Hg6 mi
3:00 AM59 °FClear.2 mph94%29.92 "Hg6 mi
2:30 AM59 °FClear.2 mph94%29.92 "HgN/A
2:00 AM59 °FClear.3 mph94%29.92 "HgN/A
1:30 AM61 °FClear.3 mph94%29.92 "HgN/A
1:00 AM61 °FClear.3 mph94%29.92 "HgN/A
12:30 AM63 °FClear.6 mph94%29.92 "HgN/A
12:00 AM61 °FClear.5 mph94%29.92 "Hg10 mi
11:30 PM
Jul 24
63 °FClear.2 mph94%29.92 "Hg10 mi
11:00 PM63 °FClear.No wind94%29.92 "Hg10 mi
10:30 PM64 °FClear.2 mph94%29.92 "Hg10 mi
10:00 PM64 °FSunny.2 mph94%29.92 "Hg10 mi
9:35 PM64 °FSunny.2 mph94%29.92 "Hg10 mi
9:00 PM68 °FSunny.No wind88%29.89 "Hg10 mi
8:30 PM72 °FSunny.2 mph78%29.89 "Hg10 mi
8:00 PM73 °FSunny.2 mph69%29.89 "Hg10 mi
7:30 PM73 °FSunny.5 mph65%29.89 "Hg10 mi
7:00 PM73 °FScattered clouds.3 mph57%29.89 "HgN/A
6:30 PM73 °FPartly sunny.3 mph65%29.89 "HgN/A
6:00 PM72 °FPartly sunny.3 mph69%29.89 "HgN/A
5:41 PM70 °FPassing clouds.3 mph78%29.89 "HgN/A
5:09 PM70 °FThunderstorms. Partly sunny.2 mph83%29.89 "HgN/A
5:00 PM70 °FThunderstorms. Partly sunny.3 mph78%29.89 "Hg2 mi
4:45 PM73 °FPartly sunny.7 mph65%29.89 "HgN/A
4:30 PM77 °FPartly sunny.12 mph51%29.89 "HgN/A
4:00 PM81 °FScattered clouds.8 mph48%29.89 "HgN/A
3:30 PM81 °FScattered clouds.5 mph48%29.89 "HgN/A
3:00 PM81 °FScattered clouds.5 mph51%29.89 "HgN/A
2:30 PM79 °FScattered clouds.8 mph51%29.89 "HgN/A
2:00 PM79 °FScattered clouds.5 mph58%29.89 "HgN/A
1:30 PM79 °FScattered clouds.5 mph54%29.89 "HgN/A
1:00 PM79 °FScattered clouds.1 mph58%29.92 "HgN/A
12:30 PM77 °FScattered clouds.3 mph57%29.92 "HgN/A
12:00 PM75 °FScattered clouds.3 mph65%29.89 "HgN/A
11:30 AM73 °FScattered clouds.2 mph65%29.89 "HgN/A
11:00 AM72 °FScattered clouds.3 mph65%29.92 "HgN/A
Weather by CustomWeather, © 2014

See weather overviewHow to use our weather pages